Home   Weather   Green Bay   Past weeks

Flag for USA Past Weather in Green Bay, Wisconsin, USA — Yesterday and Last 2 Weeks

Now
61 °F

Light rain. Mostly cloudy.


Feels Like: 61 °F
Forecast: 58 / 64 °F
Wind: 21 mph from Northeast

Location: Austin Straubel International Airport

Current Time: Sep 30, 2016 at 10:24:45 AM

Latest Report: Sep 30, 2016 at 8:53 AM


Visibility: 10 mi

Pressure: 30.28 "Hg

Humidity: 93%

Dew Point: 59 °F

Location of Green BayLocation

Past Weather in Green Bay — Graph

°F

Green Bay Temperature Yesterday

Maximum temperature yesterday: 69 °F (at 12:53 PM)
Minimum temperature yesterday: 51 °F (at 5:53 AM)
Average temperature yesterday: 60 °F

High & Low Weather Summary for the Past Weeks

 TemperatureHumidityPressure
High81 °F (Sep 20, 2:53 PM)100% (Sep 15, 10:53 PM)30.38 "Hg (Sep 15, 10:53 PM)
Low49 °F (Sep 28, 6:53 AM)39% (Sep 20, 12:53 PM)29.65 "Hg (Sep 27, 1:53 PM)
Average63 °F85%30.02 "Hg
* Reported Sep 15 8:53 AM — Sep 30 8:53 AM, Green Bay, Weather by CustomWeather, © 2016

Note: Actual official high and low records may vary slightly from our data, if they occured in-between our weather recording intervals... More about our weather records

Advertising

Green Bay Weather History for the Previous 24 Hours

Scroll right to see more
 ConditionsComfort  
Time TempWeatherWind HumidityBarometerVisibility
8:53 AM
Fri, Sep 30
61 °FLight rain. Mostly cloudy.21 mph93%30.28 "Hg10 mi
7:53 AM59 °FMore clouds than sun.14 mph100%30.28 "Hg10 mi
6:53 AM58 °FLow clouds.9 mph100%30.29 "Hg10 mi
5:53 AM58 °FMostly cloudy.10 mph97%30.30 "Hg9 mi
4:53 AM57 °FLow clouds.10 mph96%30.30 "Hg10 mi
3:53 AM57 °FLow clouds.12 mph93%30.30 "Hg10 mi
2:53 AM56 °FLow clouds.13 mph97%30.30 "Hg10 mi
1:53 AM57 °FLow clouds.12 mph96%30.32 "Hg10 mi
12:53 AM57 °FOvercast.10 mph96%30.34 "Hg10 mi
12:04 AM58 °FPassing clouds.12 mph97%30.34 "Hg10 mi
11:53 PM
Thu, Sep 29
58 °FPassing clouds.13 mph97%30.34 "Hg10 mi
10:53 PM60 °FClear.13 mph93%30.35 "Hg10 mi
9:53 PM61 °FPassing clouds.16 mph93%30.35 "Hg10 mi
8:53 PM62 °FClear.16 mph83%30.35 "Hg10 mi
7:53 PM61 °FClear.14 mph87%30.35 "Hg10 mi
6:53 PM62 °FClear.14 mph75%30.34 "Hg10 mi
5:53 PM65 °FSunny.16 mph68%30.34 "Hg10 mi
4:53 PM68 °FSunny.20 mph57%30.34 "Hg10 mi
3:53 PM68 °FSunny.20 mph61%30.34 "Hg10 mi
2:53 PM69 °FSunny.22 mph61%30.34 "Hg10 mi
1:53 PM69 °FSunny.18 mph66%30.35 "Hg10 mi
12:53 PM69 °FSunny.17 mph68%30.36 "Hg10 mi
11:53 AM66 °FSunny.21 mph75%30.38 "Hg10 mi
10:53 AM63 °FLight rain. Passing clouds.20 mph81%30.37 "Hg10 mi
Weather by CustomWeather, © 2016

See weather overviewHow to use our weather pages